Theta_e
340 340 342 342 343 344 344 345 345 344 344 343 344 341 340 342 343 344 341 345 349 345 347 346 346 344 345 347 347 346 346 344 345
344 343 346 344 343 343 344 344 344 344 345 345 345 342 341 344 345 344 344 346 349 349 347 345 346 346 347 345 347 349 349 347 347
342 346 345 348 345 343 344 344 344 345 345 344 344 340 339 340 341 343 345 347 347 347 347 346 347 346 344 343 347 348 346 345 345
344 346 345 347 346 344 345 344 343 344 345 346 346 343 339 338 341 341 341 344 346 347 345 345 345 345 339 342 346 344 344 345 345
341 346 345 344 346 346 346 345 345 345 346 346 347 347 344 339 339 341 342 341 343 345 345 349 348 345 347 343 343 345 344 344 340
340 343 343 343 345 346 346 348 347 346 346 346 348 348 345 342 342 343 341 340 342 344 345 346 346 343 345 346 349 345 345 346 343
342 344 343 345 345 345 347 348 350 350 348 347 348 349 347 342 345 346 343 341 341 343 346 345 347 348 346 344 344 345 344 344 345
342 342 344 344 345 344 344 346 349 349 349 348 349 350 348 348 347 347 345 344 344 349 349 347 347 347 346 346 343 344 345 346 345
341 341 342 343 344 345 344 339 339 346 348 349 349 349 347 349 350 346 345 345 349 351 349 351 347 348 347 348 346 345 345 345 345
339 339 340 342 339 340 341 343 343 340 338 345 349 350 350 348 351 348 347 346 347 348 346 347 348 348 346 346 348 345 344 345 345
338 339 339 340 340 335 336 341 337 339 335 337 340 340 342 343 351 351 349 349 349 348 348 349 349 346 347 347 347 344 345 345 345
337 337 338 339 340 339 336 338 342 342 342 342 340 339 344 344 349 350 350 351 349 347 347 348 347 345 345 346 346 346 346 346 346
335 336 338 339 339 339 340 340 342 341 341 344 346 343 346 340 343 345 347 346 346 346 347 345 345 345 346 346 344 343 343 344 343
336 336 337 338 337 339 339 340 339 340 341 340 341 343 343 341 339 340 340 341 343 346 346 345 343 340 341 342 342 343 341 340 341
336 336 336 335 336 339 339 340 340 340 340 339 340 339 340 339 341 341 341 342 342 342 340 337 339 340 341 340 339 338 338 338 335
335 335 335 334 333 335 337 340 343 343 343 345 344 344 343 340 341 341 339 338 339 339 340 340 338 337 337 336 336 337 337 335 335
335 334 334 332 331 331 335 336 338 340 340 341 340 340 341 340 339 338 337 339 338 336 335 335 335 336 336 335 334 334 334 334 333
335 333 332 332 330 331 332 335 336 337 337 338 338 337 337 338 337 337 337 337 336 335 334 334 334 334 333 333 333 332 332 331 329
333 332 331 330 330 330 330 332 335 335 334 335 336 337 336 336 337 336 337 336 336 336 334 333 333 332 331 331 328 326 322 317 316
330 330 329 329 328 328 328 328 331 331 333 335 335 335 335 336 336 335 335 334 333 333 332 331 329 327 325 322 317 313 314 314 314
Wind_Speed
7 16 28 27 21 36 41 39 35 28 32 29 27 25 28 25 22 20 17 19 16 15 13 14 12 14 15 10 8 6 5 4 6
18 18 12 21 26 36 45 42 39 32 29 31 28 25 29 28 26 22 21 23 17 13 14 14 14 12 17 11 8 8 7 8 10
29 20 20 13 16 34 46 42 40 35 29 28 26 25 28 29 28 26 24 20 20 18 16 13 10 12 12 14 10 8 8 9 12
35 22 17 15 10 19 44 46 42 39 33 30 30 25 25 28 28 29 25 24 23 20 18 15 16 13 12 13 14 11 10 9 10
27 15 13 11 8 15 34 41 44 41 36 32 30 26 24 25 27 26 28 27 27 23 19 16 14 11 13 13 10 11 12 11 10
20 17 9 15 12 9 24 31 39 44 43 35 32 27 22 23 26 25 28 27 27 24 19 17 16 16 16 13 11 10 12 12 11
5 6 4 12 13 13 15 24 26 39 43 41 34 30 25 23 25 23 24 27 24 22 21 19 17 16 15 15 14 14 12 12 12
3 3 2 7 13 10 9 5 23 28 38 36 38 33 29 22 19 20 20 21 24 22 20 17 17 17 15 14 14 13 11 11 13
6 2 2 3 9 15 22 7 4 15 17 37 37 35 30 23 21 20 22 24 25 20 22 21 19 18 16 16 16 16 15 15 15
9 7 5 6 10 9 13 23 27 5 9 17 35 22 33 29 27 24 23 23 24 23 22 22 22 21 20 19 19 21 20 20 19
4 5 4 6 6 9 7 3 8 16 10 13 24 34 27 33 34 31 28 26 25 26 24 25 24 23 23 23 24 22 20 20 19
4 5 2 3 8 12 13 9 7 3 6 11 13 28 33 25 29 31 31 30 26 23 24 24 23 25 24 24 22 20 16 15 15
9 8 6 4 4 10 15 14 7 3 5 7 11 24 31 31 21 23 30 25 25 25 24 23 23 25 19 16 15 14 13 12 13
9 9 6 4 4 4 8 9 8 9 7 6 8 17 14 7 5 9 10 15 17 19 19 16 13 13 11 10 9 8 9 9 8
10 6 4 2 2 3 3 5 8 12 9 10 6 6 6 9 11 12 11 11 9 8 7 8 12 9 7 6 5 4 6 5 6
10 7 3 1 1 3 4 5 7 9 10 11 11 13 8 5 7 13 10 9 9 9 10 11 10 8 7 7 7 6 5 4 3
14 9 6 3 1 2 3 6 7 8 9 11 10 6 6 8 7 8 9 9 10 9 10 9 8 7 7 7 7 6 4 2 2
12 8 5 3 1 1 1 2 6 7 8 8 7 8 8 9 9 9 8 9 9 7 6 5 4 6 4 3 2 3 5 6 7
12 9 6 6 4 3 2 3 5 6 6 7 7 9 10 9 10 11 10 9 9 9 7 6 5 4 2 5 8 12 12 13 13
15 10 10 8 6 4 2 4 5 7 8 8 7 7 10 12 10 10 9 9 8 9 11 10 9 11 13 12 13 17 16 15 15
Wind_Direction
242 231 214 226 210 209 207 207 205 205 206 205 206 206 207 200 202 205 207 203 192 200 195 203 198 208 225 224 204 219 231 217 218
294 245 232 235 234 219 212 212 209 207 206 209 209 204 204 207 206 203 197 184 194 200 213 213 221 227 220 226 226 215 229 243 245
332 268 234 223 214 212 211 216 214 210 208 206 206 204 207 211 211 206 204 202 209 217 217 217 218 227 239 239 243 243 254 241 252
327 286 222 211 208 206 213 214 214 213 210 207 207 206 206 211 212 211 210 213 218 219 218 226 220 234 251 225 244 253 253 247 248
347 295 252 245 222 230 204 208 213 215 212 210 210 208 205 210 211 212 216 220 223 223 225 226 221 237 229 234 236 246 241 239 247
348 333 248 230 213 223 192 201 211 216 217 211 210 211 203 200 201 208 212 218 219 223 226 231 233 233 233 229 236 245 244 245 248
355 353 305 188 185 203 194 199 198 209 218 219 211 210 202 196 198 200 205 211 215 214 217 226 228 234 241 252 252 252 251 252 253
130 54 54 213 194 193 164 185 198 193 208 215 218 213 205 201 201 203 207 206 200 206 218 226 237 243 251 257 256 254 259 256 255
303 357 19 129 205 229 218 231 152 188 234 213 213 213 214 204 204 202 203 201 206 211 217 229 242 249 254 252 253 259 260 263 265
294 286 236 155 139 184 233 239 255 260 267 238 215 226 216 219 209 206 203 203 210 220 224 229 239 241 245 249 254 263 260 261 261
275 279 277 222 193 163 172 199 226 228 257 266 257 285 241 215 213 217 214 211 212 220 222 227 237 241 247 256 263 267 265 263 262
242 260 257 252 221 229 221 240 294 305 266 256 263 244 237 210 212 210 218 214 217 219 222 231 243 254 255 259 258 263 256 259 262
197 193 202 225 261 256 247 247 247 152 206 186 182 218 219 211 203 214 220 214 225 225 231 243 245 253 247 256 262 258 251 251 261
210 201 187 215 260 290 246 214 214 193 195 203 182 217 162 189 195 226 206 219 223 223 224 230 237 242 238 243 241 238 243 241 225
189 192 176 241 223 146 194 216 216 229 208 206 199 199 168 188 217 190 195 206 215 206 219 237 229 217 214 203 182 177 154 146 142
193 180 163 90 288 155 164 171 187 196 181 176 204 176 182 207 188 155 163 175 181 186 180 176 172 169 165 154 138 127 124 124 130
190 186 181 167 50 59 208 179 187 196 195 188 191 195 162 157 160 155 161 164 152 152 153 154 147 139 128 119 119 124 122 115 94
200 205 199 225 238 106 47 151 176 173 179 176 174 173 159 156 150 143 157 158 160 167 159 141 127 131 134 132 139 134 119 114 112
192 200 224 243 231 213 78 62 132 145 162 164 173 166 158 171 172 172 173 169 172 177 182 171 175 187 155 134 129 120 115 109 105
227 205 192 199 222 220 200 167 159 129 124 141 144 163 155 154 159 155 154 155 159 165 163 156 143 129 122 123 123 117 107 101 101